Location: Pasarilla del Rebollar
(40.6790°N, 5.0062°W)
Time: 10:24:48
(UTC+00:00)

DELTA 2 R/B (1) - Pass Details

Date: 22 April 2026
Orbit: 786 x 800 km, 39.6° (Epoch: 20 May)

Event Time Altitude Azimuth Distance (km) Brightness Sun altitude
Exits shadow 04:13:49 21° 227° (SW) 1,719 4.7 -14.3°
Maximum altitude 04:17:21 51° 160° (SSE) 979 4.0 -13.7°
Drops below altitude 10° 04:22:42 10° 85° (E) 2,344 7.1 -12.8°
Sets 04:25:14 0° 81° (E) 3,276 8.3 -12.4°
